�N����,�����b,���ԉ��x,���Ԏ��x,��󒲎�,����,�����W�t�[�h
2002/12/1,0:00:00,21.6 ,41.4 ,22.5 ,11.9 ,21.2 
2002/12/1,0:15:00,21.5 ,41.7 ,22.4 ,12.1 ,21.0 
2002/12/1,0:30:00,21.4 ,41.5 ,22.4 ,12.3 ,21.0 
2002/12/1,0:45:00,21.5 ,41.7 ,22.4 ,11.7 ,21.0 
2002/12/1,1:00:00,21.4 ,41.5 ,22.4 ,12.0 ,20.8 
2002/12/1,1:15:00,21.3 ,41.3 ,22.4 ,12.2 ,20.7 
2002/12/1,1:30:00,21.2 ,41.6 ,22.2 ,12.4 ,20.7 
2002/12/1,1:45:00,21.2 ,41.4 ,22.2 ,12.6 ,20.7 
2002/12/1,2:00:00,21.1 ,41.3 ,22.1 ,12.8 ,20.6 
2002/12/1,2:15:00,21.1 ,41.4 ,22.0 ,12.9 ,20.5 
2002/12/1,2:30:00,21.0 ,41.4 ,22.0 ,13.1 ,20.6 
2002/12/1,2:45:00,21.0 ,41.3 ,22.0 ,13.3 ,20.6 
2002/12/1,3:00:00,21.0 ,41.2 ,21.9 ,13.4 ,20.5 
2002/12/1,3:15:00,20.9 ,41.1 ,21.9 ,13.6 ,20.5 
2002/12/1,3:30:00,20.9 ,41.0 ,21.9 ,13.7 ,20.4 
2002/12/1,3:45:00,20.8 ,41.0 ,21.8 ,13.9 ,20.4 
2002/12/1,4:00:00,20.8 ,40.9 ,21.8 ,14.0 ,20.3 
2002/12/1,4:15:00,20.7 ,40.9 ,21.8 ,14.1 ,20.2 
2002/12/1,4:30:00,20.7 ,40.8 ,21.7 ,14.2 ,20.2 
2002/12/1,4:45:00,20.6 ,40.8 ,21.7 ,14.3 ,20.1 
2002/12/1,5:00:00,20.6 ,40.7 ,21.7 ,14.4 ,20.0 
2002/12/1,5:15:00,20.5 ,40.7 ,21.6 ,14.6 ,20.0 
2002/12/1,5:30:00,20.5 ,40.6 ,21.6 ,14.7 ,19.9 
2002/12/1,5:45:00,20.4 ,40.6 ,21.6 ,14.8 ,19.9 
2002/12/1,6:00:00,20.4 ,40.6 ,21.5 ,14.9 ,19.9 
2002/12/1,6:15:00,20.3 ,40.5 ,21.5 ,15.0 ,19.8 
2002/12/1,6:30:00,20.3 ,40.4 ,21.5 ,15.1 ,19.8 
2002/12/1,6:45:00,20.3 ,40.4 ,21.5 ,12.8 ,19.8 
2002/12/1,7:00:00,20.3 ,40.5 ,21.4 ,13.0 ,19.8 
2002/12/1,7:15:00,20.2 ,40.3 ,21.4 ,13.1 ,19.8 
2002/12/1,7:30:00,20.2 ,40.4 ,21.4 ,13.3 ,19.9 
2002/12/1,7:45:00,20.3 ,40.3 ,21.4 ,13.4 ,20.0 
2002/12/1,8:00:00,20.3 ,40.3 ,21.3 ,13.6 ,20.0 
2002/12/1,8:15:00,20.3 ,40.3 ,21.3 ,13.7 ,20.2 
2002/12/1,8:30:00,20.3 ,40.2 ,21.3 ,13.9 ,20.3 
2002/12/1,8:45:00,20.3 ,40.2 ,21.3 ,14.0 ,20.2 
2002/12/1,9:00:00,20.4 ,40.4 ,21.3 ,14.1 ,20.1 
2002/12/1,9:15:00,20.4 ,40.7 ,21.4 ,14.3 ,20.1 
2002/12/1,9:30:00,20.6 ,40.5 ,21.4 ,14.4 ,20.2 
2002/12/1,9:45:00,20.7 ,40.7 ,21.4 ,12.2 ,24.6 
2002/12/1,10:00:00,20.9 ,41.0 ,21.5 ,11.2 ,23.6 
2002/12/1,10:15:00,21.0 ,41.0 ,21.6 ,11.4 ,22.8 
2002/12/1,10:30:00,21.1 ,41.3 ,21.6 ,11.6 ,22.3 
2002/12/1,10:45:00,21.0 ,40.7 ,21.7 ,11.8 ,22.0 
2002/12/1,11:00:00,21.1 ,40.6 ,21.8 ,12.0 ,21.6 
2002/12/1,11:15:00,21.2 ,40.5 ,22.0 ,12.2 ,21.5 
2002/12/1,11:30:00,21.2 ,41.0 ,22.2 ,12.4 ,21.5 
2002/12/1,11:45:00,21.3 ,41.8 ,22.4 ,12.6 ,21.4 
2002/12/1,12:00:00,21.4 ,42.5 ,22.5 ,12.8 ,21.4 
2002/12/1,12:15:00,21.4 ,43.5 ,22.6 ,12.9 ,21.4 
2002/12/1,12:30:00,21.5 ,43.9 ,22.7 ,13.1 ,21.4 
2002/12/1,12:45:00,21.5 ,44.0 ,22.7 ,13.2 ,21.4 
2002/12/1,13:00:00,21.6 ,44.1 ,22.8 ,13.4 ,24.2 
2002/12/1,13:15:00,21.6 ,44.4 ,22.8 ,13.5 ,28.5 
2002/12/1,13:30:00,21.8 ,44.0 ,22.9 ,13.7 ,26.5 
2002/12/1,13:45:00,21.9 ,43.7 ,22.9 ,13.8 ,24.7 
2002/12/1,14:00:00,21.9 ,43.7 ,23.0 ,13.9 ,23.8 
2002/12/1,14:15:00,21.9 ,43.9 ,23.0 ,14.1 ,23.1 
2002/12/1,14:30:00,22.0 ,43.7 ,23.1 ,14.2 ,22.7 
2002/12/1,14:45:00,22.0 ,44.1 ,23.1 ,14.3 ,25.1 
2002/12/1,15:00:00,22.0 ,43.6 ,23.2 ,14.4 ,23.9 
2002/12/1,15:15:00,22.0 ,43.8 ,23.2 ,14.5 ,22.9 
2002/12/1,15:30:00,22.0 ,43.7 ,23.2 ,12.8 ,22.4 
2002/12/1,15:45:00,21.9 ,43.3 ,23.2 ,12.9 ,26.8 
2002/12/1,16:00:00,22.0 ,43.1 ,23.2 ,13.1 ,24.6 
2002/12/1,16:15:00,22.0 ,42.9 ,23.2 ,13.3 ,23.4 
2002/12/1,16:30:00,22.0 ,42.8 ,23.2 ,13.5 ,22.7 
2002/12/1,16:45:00,22.0 ,42.6 ,23.2 ,13.6 ,22.2 
2002/12/1,17:00:00,22.1 ,42.4 ,23.2 ,13.8 ,21.9 
2002/12/1,17:15:00,22.1 ,42.0 ,23.1 ,13.9 ,21.7 
2002/12/1,17:30:00,22.1 ,42.0 ,23.1 ,14.1 ,21.5 
2002/12/1,17:45:00,22.0 ,41.9 ,23.1 ,12.4 ,21.4 
2002/12/1,18:00:00,22.0 ,41.8 ,23.0 ,12.6 ,21.4 
2002/12/1,18:15:00,22.0 ,42.2 ,23.0 ,11.5 ,25.7 
2002/12/1,18:30:00,22.1 ,42.2 ,23.0 ,11.8 ,31.8 
2002/12/1,18:45:00,22.1 ,42.6 ,22.9 ,12.0 ,28.5 
2002/12/1,19:00:00,22.2 ,42.2 ,23.0 ,12.3 ,25.3 
2002/12/1,19:15:00,22.2 ,41.8 ,23.0 ,12.4 ,23.9 
2002/12/1,19:30:00,22.2 ,41.9 ,22.9 ,12.6 ,23.1 
2002/12/1,19:45:00,22.2 ,41.8 ,22.9 ,12.8 ,22.6 
2002/12/1,20:00:00,22.2 ,41.2 ,22.9 ,13.0 ,22.2 
2002/12/1,20:15:00,22.1 ,41.1 ,22.8 ,13.2 ,21.9 
2002/12/1,20:30:00,22.0 ,41.0 ,22.8 ,13.3 ,21.7 
2002/12/1,20:45:00,22.0 ,42.2 ,22.8 ,13.5 ,21.6 
2002/12/1,21:00:00,22.1 ,42.5 ,22.8 ,12.2 ,21.4 
2002/12/1,21:15:00,22.2 ,42.9 ,22.8 ,12.4 ,21.2 
2002/12/1,21:30:00,22.2 ,41.9 ,22.8 ,12.6 ,21.1 
2002/12/1,21:45:00,22.1 ,41.5 ,22.8 ,12.8 ,21.0 
2002/12/1,22:00:00,22.1 ,40.9 ,22.8 ,12.9 ,20.9 
2002/12/1,22:15:00,21.7 ,41.3 ,22.6 ,13.1 ,20.7 
2002/12/1,22:30:00,21.6 ,41.2 ,22.5 ,13.3 ,20.6 
2002/12/1,22:45:00,21.4 ,41.3 ,22.3 ,13.4 ,20.4 
2002/12/1,23:00:00,21.3 ,41.3 ,22.2 ,13.6 ,20.4 
2002/12/1,23:15:00,21.2 ,41.2 ,22.2 ,13.8 ,20.4 
2002/12/1,23:30:00,21.2 ,41.1 ,22.1 ,13.9 ,20.4 
2002/12/1,23:45:00,21.1 ,41.1 ,22.0 ,14.0 ,20.3 
2002/12/2,0:00:00,21.0 ,41.1 ,21.9 ,14.2 ,20.3 
2002/12/2,0:15:00,20.9 ,41.0 ,21.9 ,14.3 ,20.3 
2002/12/2,0:30:00,20.9 ,40.9 ,21.8 ,14.4 ,20.3 
2002/12/2,0:45:00,20.8 ,40.9 ,21.7 ,14.5 ,20.1 
2002/12/2,1:00:00,20.7 ,40.8 ,21.7 ,14.6 ,20.0 
2002/12/2,1:15:00,20.6 ,40.4 ,21.6 ,14.7 ,19.9 
2002/12/2,1:30:00,20.6 ,40.6 ,21.6 ,14.8 ,19.9 
2002/12/2,1:45:00,20.5 ,40.4 ,21.5 ,14.9 ,19.9 
2002/12/2,2:00:00,20.4 ,40.6 ,21.5 ,15.0 ,19.8 
2002/12/2,2:15:00,20.4 ,40.4 ,21.5 ,15.1 ,19.7 
2002/12/2,2:30:00,20.3 ,40.4 ,21.4 ,15.3 ,19.7 
2002/12/2,2:45:00,20.3 ,40.1 ,21.3 ,15.4 ,19.7 
2002/12/2,3:00:00,20.2 ,40.3 ,21.3 ,15.5 ,19.7 
2002/12/2,3:15:00,20.2 ,40.1 ,21.3 ,15.6 ,19.6 
2002/12/2,3:30:00,20.1 ,39.9 ,21.2 ,15.7 ,19.6 
2002/12/2,3:45:00,20.1 ,40.1 ,21.2 ,15.8 ,19.5 
2002/12/2,4:00:00,20.1 ,39.9 ,21.2 ,15.8 ,19.5 
2002/12/2,4:15:00,20.0 ,39.9 ,21.1 ,15.9 ,19.4 
2002/12/2,4:30:00,19.9 ,39.7 ,21.1 ,16.0 ,19.5 
2002/12/2,4:45:00,19.9 ,39.7 ,21.0 ,16.1 ,19.4 
2002/12/2,5:00:00,19.9 ,39.7 ,21.0 ,11.3 ,19.4 
2002/12/2,5:15:00,19.9 ,39.5 ,21.0 ,13.2 ,19.4 
2002/12/2,5:30:00,19.8 ,39.6 ,21.0 ,13.3 ,19.4 
2002/12/2,5:45:00,19.8 ,39.6 ,20.9 ,13.5 ,19.3 
2002/12/2,6:00:00,19.8 ,39.5 ,20.9 ,13.6 ,19.3 
2002/12/2,6:15:00,19.8 ,39.3 ,20.9 ,12.0 ,19.2 
2002/12/2,6:30:00,19.7 ,39.5 ,20.8 ,12.2 ,19.2 
2002/12/2,6:45:00,19.7 ,39.0 ,20.8 ,12.4 ,19.2 
2002/12/2,7:00:00,19.7 ,39.3 ,20.8 ,12.6 ,19.2 
2002/12/2,7:15:00,19.6 ,39.2 ,20.7 ,12.7 ,19.2 
2002/12/2,7:30:00,19.7 ,38.9 ,20.7 ,12.9 ,19.3 
2002/12/2,7:45:00,19.8 ,39.2 ,20.7 ,13.1 ,19.6 
2002/12/2,8:00:00,19.9 ,39.5 ,20.7 ,13.2 ,19.7 
2002/12/2,8:15:00,19.9 ,39.3 ,20.8 ,13.3 ,19.7 
2002/12/2,8:30:00,20.0 ,39.4 ,20.8 ,13.5 ,19.8 
2002/12/2,8:45:00,20.0 ,39.5 ,20.9 ,13.6 ,19.8 
2002/12/2,9:00:00,20.1 ,39.9 ,20.9 ,13.7 ,19.9 
2002/12/2,9:15:00,20.3 ,40.1 ,21.0 ,13.8 ,20.1 
2002/12/2,9:30:00,20.3 ,40.3 ,21.1 ,13.9 ,20.3 
2002/12/2,9:45:00,20.4 ,41.1 ,21.1 ,14.0 ,20.4 
2002/12/2,10:00:00,20.4 ,41.4 ,21.2 ,14.2 ,20.5 
2002/12/2,10:15:00,20.4 ,42.1 ,21.2 ,12.1 ,20.4 
2002/12/2,10:30:00,20.6 ,42.9 ,21.5 ,12.3 ,20.6 
2002/12/2,10:45:00,20.7 ,43.0 ,21.6 ,12.5 ,20.7 
2002/12/2,11:00:00,20.8 ,43.0 ,21.8 ,12.7 ,20.8 
2002/12/2,11:15:00,20.9 ,43.0 ,21.9 ,12.8 ,20.9 
2002/12/2,11:30:00,21.0 ,42.9 ,22.0 ,13.0 ,21.0 
2002/12/2,11:45:00,21.1 ,42.7 ,22.1 ,13.1 ,22.8 
2002/12/2,12:00:00,21.1 ,42.4 ,22.1 ,13.3 ,22.0 
2002/12/2,12:15:00,21.1 ,42.3 ,22.2 ,13.4 ,21.5 
2002/12/2,12:30:00,21.1 ,42.4 ,22.2 ,13.6 ,21.3 
2002/12/2,12:45:00,21.1 ,42.3 ,22.3 ,13.7 ,21.1 
2002/12/2,13:00:00,21.3 ,41.6 ,22.3 ,13.9 ,22.3 
2002/12/2,13:15:00,21.3 ,41.5 ,22.4 ,14.0 ,22.0 
2002/12/2,13:30:00,20.9 ,42.0 ,22.2 ,14.1 ,21.7 
2002/12/2,13:45:00,20.8 ,42.0 ,22.1 ,14.2 ,21.5 
2002/12/2,14:00:00,20.7 ,41.9 ,22.0 ,14.3 ,21.3 
2002/12/2,14:15:00,20.7 ,42.0 ,21.9 ,14.4 ,21.2 
2002/12/2,14:30:00,20.9 ,41.8 ,21.9 ,14.5 ,21.2 
2002/12/2,14:45:00,20.9 ,41.5 ,21.8 ,14.6 ,21.1 
2002/12/2,15:00:00,21.0 ,41.6 ,21.8 ,14.7 ,21.0 
2002/12/2,15:15:00,20.9 ,41.5 ,21.8 ,14.8 ,21.0 
2002/12/2,15:30:00,21.0 ,41.4 ,21.8 ,14.9 ,21.0 
2002/12/2,15:45:00,21.0 ,41.4 ,21.8 ,15.0 ,21.0 
2002/12/2,16:00:00,21.2 ,41.2 ,21.9 ,15.1 ,21.1 
2002/12/2,16:15:00,21.2 ,40.6 ,22.0 ,15.2 ,21.0 
2002/12/2,16:30:00,21.1 ,40.8 ,22.1 ,15.3 ,21.1 
2002/12/2,16:45:00,21.3 ,40.5 ,22.2 ,15.4 ,21.1 
2002/12/2,17:00:00,21.2 ,40.7 ,22.2 ,12.8 ,21.2 
2002/12/2,17:15:00,21.4 ,40.2 ,22.3 ,13.0 ,25.0 
2002/12/2,17:30:00,21.4 ,40.0 ,22.3 ,13.1 ,24.8 
2002/12/2,17:45:00,21.2 ,40.5 ,22.3 ,13.3 ,23.6 
2002/12/2,18:00:00,21.5 ,39.8 ,22.4 ,13.5 ,22.9 
2002/12/2,18:15:00,21.3 ,40.6 ,22.4 ,13.6 ,27.2 
2002/12/2,18:30:00,21.4 ,40.5 ,22.4 ,13.8 ,25.2 
2002/12/2,18:45:00,21.6 ,39.9 ,22.4 ,13.9 ,23.9 
2002/12/2,19:00:00,21.4 ,40.4 ,22.4 ,14.1 ,24.8 
2002/12/2,19:15:00,21.5 ,40.5 ,22.4 ,14.2 ,23.8 
2002/12/2,19:30:00,21.7 ,40.1 ,22.4 ,14.3 ,22.9 
2002/12/2,19:45:00,21.6 ,40.3 ,22.4 ,14.4 ,22.4 
2002/12/2,20:00:00,21.5 ,40.3 ,22.4 ,14.5 ,22.0 
2002/12/2,20:15:00,21.5 ,40.3 ,22.4 ,14.6 ,21.7 
2002/12/2,20:30:00,21.5 ,40.0 ,22.4 ,14.7 ,21.5 
2002/12/2,20:45:00,21.5 ,39.8 ,22.4 ,14.8 ,21.3 
2002/12/2,21:00:00,21.5 ,39.6 ,22.4 ,14.9 ,21.1 
2002/12/2,21:15:00,21.5 ,40.6 ,22.4 ,15.1 ,21.1 
2002/12/2,21:30:00,21.6 ,41.5 ,22.4 ,15.2 ,21.0 
2002/12/2,21:45:00,21.7 ,41.2 ,22.4 ,15.3 ,20.9 
2002/12/2,22:00:00,21.6 ,41.0 ,22.4 ,15.4 ,23.3 
2002/12/2,22:15:00,21.7 ,41.0 ,22.4 ,15.5 ,22.9 
2002/12/2,22:30:00,21.7 ,40.8 ,22.4 ,15.6 ,22.9 
2002/12/2,22:45:00,21.8 ,40.9 ,22.4 ,15.7 ,22.2 
2002/12/2,23:00:00,21.8 ,40.4 ,22.4 ,15.8 ,21.7 
2002/12/2,23:15:00,21.9 ,40.3 ,22.4 ,16.0 ,23.8 
2002/12/2,23:30:00,21.4 ,40.6 ,22.3 ,16.0 ,22.5 
2002/12/2,23:45:00,21.2 ,40.8 ,22.2 ,16.1 ,21.6 
2002/12/3,0:00:00,21.1 ,40.6 ,22.1 ,16.2 ,21.1 
2002/12/3,0:15:00,21.0 ,40.6 ,22.0 ,12.9 ,20.8 
2002/12/3,0:30:00,20.9 ,40.6 ,22.0 ,13.1 ,20.7 
2002/12/3,0:45:00,20.8 ,40.6 ,21.9 ,13.3 ,20.7 
2002/12/3,1:00:00,20.7 ,40.7 ,21.8 ,13.4 ,20.5 
2002/12/3,1:15:00,20.6 ,40.8 ,21.7 ,13.6 ,20.5 
2002/12/3,1:30:00,20.6 ,40.8 ,21.6 ,13.8 ,20.3 
2002/12/3,1:45:00,20.5 ,40.6 ,21.6 ,13.9 ,20.3 
2002/12/3,2:00:00,20.4 ,40.7 ,21.5 ,14.0 ,20.2 
2002/12/3,2:15:00,20.4 ,40.6 ,21.5 ,14.2 ,20.1 
2002/12/3,2:30:00,20.3 ,40.7 ,21.4 ,14.3 ,20.0 
2002/12/3,2:45:00,20.3 ,40.6 ,21.4 ,14.4 ,19.9 
2002/12/3,3:00:00,20.3 ,40.5 ,21.4 ,14.5 ,20.0 
2002/12/3,3:15:00,20.3 ,40.4 ,21.4 ,14.6 ,19.9 
2002/12/3,3:30:00,20.2 ,40.5 ,21.4 ,14.7 ,20.0 
2002/12/3,3:45:00,20.2 ,40.2 ,21.3 ,14.8 ,19.9 
2002/12/3,4:00:00,20.1 ,40.5 ,21.3 ,14.9 ,19.9 
2002/12/3,4:15:00,20.1 ,40.4 ,21.3 ,15.1 ,19.9 
2002/12/3,4:30:00,20.1 ,40.3 ,21.3 ,15.2 ,19.8 
2002/12/3,4:45:00,20.1 ,40.3 ,21.2 ,15.3 ,19.8 
2002/12/3,5:00:00,20.0 ,40.3 ,21.2 ,15.4 ,19.8 
2002/12/3,5:15:00,20.0 ,40.3 ,21.2 ,15.5 ,19.8 
2002/12/3,5:30:00,20.0 ,40.1 ,21.2 ,15.6 ,19.8 
2002/12/3,5:45:00,20.0 ,40.2 ,21.2 ,15.7 ,19.8 
2002/12/3,6:00:00,19.9 ,40.3 ,21.2 ,15.8 ,19.8 
2002/12/3,6:15:00,19.9 ,40.2 ,21.1 ,13.0 ,19.7 
2002/12/3,6:30:00,20.0 ,40.2 ,21.1 ,13.2 ,19.8 
2002/12/3,6:45:00,20.0 ,40.2 ,21.1 ,13.3 ,19.7 
2002/12/3,7:00:00,19.9 ,40.0 ,21.1 ,13.5 ,19.7 
2002/12/3,7:15:00,19.9 ,40.1 ,21.1 ,13.6 ,19.7 
2002/12/3,7:30:00,19.9 ,40.0 ,21.1 ,13.8 ,19.8 
2002/12/3,7:45:00,19.9 ,40.1 ,21.1 ,13.9 ,20.0 
2002/12/3,8:00:00,20.0 ,39.8 ,21.1 ,14.0 ,20.2 
2002/12/3,8:15:00,20.1 ,39.7 ,21.2 ,14.2 ,20.4 
2002/12/3,8:30:00,20.6 ,39.1 ,21.3 ,14.3 ,20.7 
2002/12/3,8:45:00,20.5 ,39.8 ,21.4 ,14.4 ,21.9 
2002/12/3,9:00:00,20.7 ,40.6 ,21.4 ,12.2 ,22.6 
2002/12/3,9:15:00,20.8 ,40.2 ,21.5 ,12.6 ,22.3 
2002/12/3,9:30:00,21.0 ,39.7 ,21.6 ,12.8 ,22.1 
2002/12/3,9:45:00,21.4 ,39.1 ,21.8 ,11.4 ,21.9 
2002/12/3,10:00:00,20.9 ,40.0 ,21.9 ,11.7 ,21.8 
2002/12/3,10:15:00,20.9 ,40.1 ,21.9 ,11.9 ,21.6 
2002/12/3,10:30:00,21.1 ,40.1 ,21.8 ,12.1 ,21.9 
2002/12/3,10:45:00,21.0 ,40.5 ,21.8 ,12.3 ,23.5 
2002/12/3,11:00:00,21.3 ,40.2 ,21.9 ,12.5 ,23.0 
2002/12/3,11:15:00,21.4 ,40.0 ,22.1 ,12.6 ,22.6 
2002/12/3,11:30:00,21.5 ,40.3 ,22.2 ,12.8 ,22.3 
2002/12/3,11:45:00,21.5 ,40.1 ,22.3 ,13.0 ,22.2 
2002/12/3,12:00:00,21.4 ,40.7 ,22.4 ,13.2 ,22.1 
2002/12/3,12:15:00,21.4 ,41.3 ,22.3 ,13.3 ,21.9 
2002/12/3,12:30:00,21.2 ,39.9 ,22.3 ,13.4 ,21.8 
2002/12/3,12:45:00,21.2 ,41.3 ,22.2 ,13.6 ,21.7 
2002/12/3,13:00:00,21.1 ,41.5 ,22.1 ,13.7 ,21.6 
2002/12/3,13:15:00,21.2 ,41.7 ,22.1 ,13.9 ,21.6 
2002/12/3,13:30:00,21.2 ,41.6 ,22.1 ,14.0 ,21.6 
2002/12/3,13:45:00,21.2 ,41.8 ,22.0 ,14.1 ,21.5 
2002/12/3,14:00:00,21.2 ,41.5 ,22.0 ,14.2 ,21.5 
2002/12/3,14:15:00,21.1 ,41.6 ,22.0 ,14.3 ,21.5 
2002/12/3,14:30:00,21.1 ,41.7 ,22.0 ,14.4 ,21.5 
2002/12/3,14:45:00,21.1 ,41.6 ,22.0 ,14.5 ,21.5 
2002/12/3,15:00:00,21.0 ,41.9 ,21.9 ,14.7 ,21.3 
2002/12/3,15:15:00,21.0 ,41.9 ,21.9 ,14.8 ,21.3 
2002/12/3,15:30:00,21.0 ,41.8 ,21.9 ,14.9 ,21.3 
2002/12/3,15:45:00,21.0 ,41.8 ,21.9 ,14.9 ,21.3 
2002/12/3,16:00:00,20.9 ,42.1 ,21.8 ,15.0 ,21.1 
2002/12/3,16:15:00,20.9 ,42.2 ,21.8 ,15.2 ,21.1 
2002/12/3,16:30:00,20.9 ,42.2 ,21.8 ,15.3 ,21.1 
2002/12/3,16:45:00,20.9 ,42.0 ,21.8 ,15.4 ,21.1 
2002/12/3,17:00:00,20.8 ,42.0 ,21.8 ,15.5 ,21.0 
2002/12/3,17:15:00,20.8 ,42.2 ,21.8 ,15.6 ,21.1 
2002/12/3,17:30:00,20.8 ,42.0 ,21.8 ,15.7 ,21.1 
2002/12/3,17:45:00,20.8 ,42.0 ,21.7 ,15.8 ,21.0 
2002/12/3,18:00:00,20.8 ,42.1 ,21.7 ,15.9 ,21.0 
2002/12/3,18:15:00,20.7 ,41.8 ,21.7 ,16.0 ,21.0 
2002/12/3,18:30:00,20.7 ,41.8 ,21.7 ,16.0 ,21.0 
2002/12/3,18:45:00,20.7 ,41.7 ,21.7 ,16.1 ,21.0 
2002/12/3,19:00:00,20.7 ,41.5 ,21.7 ,16.2 ,20.9 
2002/12/3,19:15:00,20.7 ,41.3 ,21.7 ,16.3 ,20.9 
2002/12/3,19:30:00,20.7 ,41.4 ,21.7 ,16.4 ,20.8 
2002/12/3,19:45:00,20.6 ,41.3 ,21.7 ,16.4 ,20.9 
2002/12/3,20:00:00,20.9 ,41.0 ,21.7 ,16.5 ,20.9 
2002/12/3,20:15:00,21.0 ,40.8 ,21.7 ,16.6 ,20.9 
2002/12/3,20:30:00,21.0 ,40.7 ,21.7 ,16.7 ,20.9 
2002/12/3,20:45:00,21.1 ,40.5 ,21.7 ,16.7 ,21.0 
2002/12/3,21:00:00,21.1 ,40.5 ,21.7 ,16.8 ,20.9 
2002/12/3,21:15:00,21.1 ,40.1 ,21.7 ,16.9 ,20.9 
2002/12/3,21:30:00,21.2 ,40.2 ,21.7 ,13.4 ,21.0 
2002/12/3,21:45:00,21.4 ,39.7 ,21.7 ,13.5 ,23.4 
2002/12/3,22:00:00,21.4 ,40.6 ,21.7 ,13.7 ,24.4 
2002/12/3,22:15:00,21.4 ,40.1 ,21.7 ,13.8 ,23.0 
2002/12/3,22:30:00,21.4 ,40.3 ,21.7 ,13.9 ,22.1 
2002/12/3,22:45:00,21.2 ,40.2 ,21.7 ,14.1 ,21.6 
2002/12/3,23:00:00,21.0 ,40.3 ,21.7 ,14.2 ,21.1 
2002/12/3,23:15:00,20.8 ,40.5 ,21.6 ,14.3 ,20.9 
2002/12/3,23:30:00,20.8 ,40.5 ,21.6 ,14.5 ,20.8 
2002/12/3,23:45:00,20.7 ,40.6 ,21.6 ,14.6 ,20.6 
2002/12/4,0:00:00,20.7 ,40.5 ,21.5 ,12.5 ,20.6 
2002/12/4,0:15:00,20.6 ,40.6 ,21.5 ,12.7 ,20.4 
2002/12/4,0:30:00,20.5 ,40.7 ,21.5 ,12.8 ,20.4 
2002/12/4,0:45:00,20.5 ,40.6 ,21.5 ,13.0 ,20.4 
2002/12/4,1:00:00,20.4 ,40.6 ,21.4 ,13.2 ,20.4 
2002/12/4,1:15:00,20.4 ,40.6 ,21.4 ,13.3 ,20.2 
2002/12/4,1:30:00,20.3 ,40.5 ,21.4 ,13.5 ,20.1 
2002/12/4,1:45:00,20.3 ,40.5 ,21.3 ,13.6 ,20.1 
2002/12/4,2:00:00,20.2 ,40.5 ,21.3 ,13.8 ,20.0 
2002/12/4,2:15:00,20.2 ,40.6 ,21.3 ,13.9 ,20.0 
2002/12/4,2:30:00,20.1 ,40.5 ,21.2 ,14.0 ,19.9 
2002/12/4,2:45:00,20.1 ,40.4 ,21.2 ,14.1 ,19.9 
2002/12/4,3:00:00,20.1 ,40.4 ,21.2 ,14.2 ,19.8 
2002/12/4,3:15:00,20.0 ,40.3 ,21.2 ,14.3 ,19.8 
2002/12/4,3:30:00,20.0 ,40.4 ,21.1 ,14.4 ,19.8 
2002/12/4,3:45:00,20.0 ,40.3 ,21.1 ,14.5 ,19.8 
2002/12/4,4:00:00,19.9 ,40.4 ,21.1 ,14.6 ,19.8 
2002/12/4,4:15:00,19.9 ,40.3 ,21.1 ,14.7 ,19.7 
2002/12/4,4:30:00,19.9 ,40.3 ,21.0 ,14.8 ,19.7 
2002/12/4,4:45:00,19.9 ,40.3 ,21.0 ,14.9 ,19.7 
2002/12/4,5:00:00,19.9 ,40.3 ,21.0 ,15.0 ,19.6 
2002/12/4,5:15:00,19.8 ,40.3 ,21.0 ,15.1 ,19.6 
2002/12/4,5:30:00,19.9 ,40.0 ,21.0 ,12.7 ,19.6 
2002/12/4,5:45:00,19.8 ,40.2 ,20.9 ,12.9 ,19.6 
2002/12/4,6:00:00,19.8 ,40.1 ,20.9 ,13.1 ,19.6 
2002/12/4,6:15:00,19.8 ,40.2 ,20.9 ,13.2 ,19.6 
2002/12/4,6:30:00,19.8 ,40.2 ,20.9 ,13.4 ,19.6 
2002/12/4,6:45:00,19.7 ,40.1 ,20.9 ,13.5 ,19.6 
2002/12/4,7:00:00,19.8 ,40.2 ,20.9 ,13.6 ,19.6 
2002/12/4,7:15:00,19.7 ,40.1 ,20.9 ,13.7 ,19.6 
2002/12/4,7:30:00,19.7 ,40.2 ,20.9 ,13.9 ,19.6 
2002/12/4,7:45:00,19.7 ,40.1 ,20.9 ,14.0 ,19.6 
2002/12/4,8:00:00,19.8 ,40.1 ,20.9 ,12.1 ,19.6 
2002/12/4,8:15:00,19.8 ,40.1 ,20.8 ,11.1 ,19.6 
2002/12/4,8:30:00,19.8 ,40.0 ,20.8 ,11.4 ,19.7 
2002/12/4,8:45:00,19.8 ,40.0 ,20.8 ,11.6 ,19.8 
2002/12/4,9:00:00,19.8 ,40.1 ,20.9 ,11.8 ,19.9 
2002/12/4,9:15:00,20.0 ,40.0 ,20.9 ,12.0 ,20.0 
2002/12/4,9:30:00,19.9 ,40.1 ,20.9 ,12.2 ,20.0 
2002/12/4,9:45:00,20.1 ,40.1 ,21.0 ,12.3 ,20.0 
2002/12/4,10:00:00,20.1 ,40.3 ,21.0 ,12.5 ,20.1 
2002/12/4,10:15:00,20.3 ,40.0 ,21.2 ,12.7 ,20.3 
2002/12/4,10:30:00,20.4 ,39.9 ,21.4 ,12.8 ,20.5 
2002/12/4,10:45:00,20.3 ,40.1 ,21.4 ,13.0 ,20.5 
2002/12/4,11:00:00,20.4 ,40.3 ,21.4 ,13.1 ,20.4 
2002/12/4,11:15:00,20.4 ,40.4 ,21.4 ,13.2 ,23.9 
2002/12/4,11:30:00,20.7 ,40.1 ,21.6 ,13.4 ,24.2 
2002/12/4,11:45:00,20.9 ,40.1 ,21.7 ,13.5 ,24.0 
2002/12/4,12:00:00,20.8 ,40.1 ,21.9 ,11.9 ,24.7 
2002/12/4,12:15:00,20.9 ,40.2 ,22.0 ,12.1 ,23.0 
2002/12/4,12:30:00,20.9 ,40.3 ,22.1 ,12.3 ,22.1 
2002/12/4,12:45:00,21.3 ,39.8 ,22.2 ,12.5 ,21.7 
2002/12/4,13:00:00,21.3 ,39.9 ,22.3 ,12.6 ,21.4 
2002/12/4,13:15:00,21.3 ,39.9 ,22.4 ,12.8 ,21.3 
2002/12/4,13:30:00,21.3 ,40.1 ,22.5 ,12.9 ,21.3 
2002/12/4,13:45:00,21.3 ,40.0 ,22.6 ,13.1 ,21.3 
2002/12/4,14:00:00,21.4 ,40.0 ,22.6 ,13.3 ,21.3 
2002/12/4,14:15:00,21.3 ,40.7 ,22.7 ,13.4 ,21.2 
2002/12/4,14:30:00,21.3 ,40.4 ,22.7 ,13.5 ,21.2 
2002/12/4,14:45:00,21.4 ,40.3 ,22.7 ,13.7 ,21.1 
2002/12/4,15:00:00,21.5 ,40.6 ,22.8 ,12.1 ,21.1 
2002/12/4,15:15:00,21.2 ,41.3 ,22.8 ,12.3 ,21.2 
2002/12/4,15:30:00,21.6 ,40.9 ,22.8 ,11.3 ,21.2 
2002/12/4,15:45:00,21.1 ,42.0 ,22.7 ,11.5 ,21.2 
2002/12/4,16:00:00,21.4 ,41.5 ,22.7 ,10.9 ,21.1 
2002/12/4,16:15:00,21.6 ,41.2 ,22.8 ,11.2 ,22.3 
2002/12/4,16:30:00,21.6 ,42.0 ,22.8 ,11.4 ,22.4 
2002/12/4,16:45:00,21.7 ,41.8 ,22.8 ,11.6 ,22.0 
2002/12/4,17:00:00,21.8 ,41.4 ,22.8 ,11.8 ,22.6 
2002/12/4,17:15:00,21.7 ,41.5 ,22.8 ,12.0 ,25.3 
2002/12/4,17:30:00,21.8 ,42.0 ,22.9 ,12.2 ,30.3 
2002/12/4,17:45:00,21.9 ,41.7 ,22.9 ,12.4 ,28.1 
2002/12/4,18:00:00,22.1 ,41.7 ,22.9 ,12.6 ,28.6 
2002/12/4,18:15:00,22.0 ,42.4 ,22.9 ,12.8 ,27.6 
2002/12/4,18:30:00,22.3 ,43.7 ,22.9 ,12.9 ,26.2 
2002/12/4,18:45:00,22.3 ,43.7 ,23.0 ,13.1 ,24.6 
2002/12/4,19:00:00,22.2 ,43.3 ,23.0 ,13.2 ,23.9 
2002/12/4,19:15:00,22.2 ,42.9 ,23.1 ,13.4 ,23.4 
2002/12/4,19:30:00,22.2 ,43.0 ,23.1 ,12.2 ,23.0 
2002/12/4,19:45:00,22.2 ,44.3 ,23.2 ,12.3 ,22.8 
2002/12/4,20:00:00,22.2 ,43.8 ,23.2 ,11.2 ,22.7 
2002/12/4,20:15:00,22.3 ,44.4 ,23.3 ,11.4 ,22.5 
2002/12/4,20:30:00,22.3 ,44.7 ,23.3 ,11.6 ,22.4 
2002/12/4,20:45:00,22.4 ,43.7 ,23.4 ,11.8 ,22.3 
2002/12/4,21:00:00,22.5 ,43.2 ,23.4 ,12.0 ,22.1 
2002/12/4,21:15:00,22.3 ,43.3 ,23.4 ,12.3 ,22.1 
2002/12/4,21:30:00,22.0 ,43.3 ,23.2 ,12.4 ,21.9 
2002/12/4,21:45:00,21.8 ,43.5 ,23.0 ,12.6 ,21.8 
2002/12/4,22:00:00,21.7 ,43.8 ,22.9 ,12.8 ,21.7 
2002/12/4,22:15:00,21.9 ,43.6 ,22.8 ,13.0 ,21.7 
2002/12/4,22:30:00,22.2 ,44.3 ,22.8 ,13.2 ,24.4 
2002/12/4,22:45:00,22.2 ,44.2 ,22.8 ,13.3 ,23.7 
2002/12/4,23:00:00,22.4 ,44.0 ,22.9 ,13.5 ,24.7 
2002/12/4,23:15:00,22.3 ,44.1 ,22.9 ,13.6 ,23.7 
2002/12/4,23:30:00,21.9 ,44.1 ,22.8 ,13.8 ,22.9 
2002/12/4,23:45:00,21.7 ,44.1 ,22.7 ,13.9 ,22.3 
2002/12/5,0:00:00,21.7 ,44.0 ,22.7 ,14.0 ,22.0 
2002/12/5,0:15:00,21.7 ,43.9 ,22.6 ,14.2 ,21.8 
2002/12/5,0:30:00,21.7 ,43.7 ,22.5 ,14.3 ,21.7 
2002/12/5,0:45:00,21.6 ,43.8 ,22.5 ,14.4 ,21.6 
2002/12/5,1:00:00,21.6 ,43.8 ,22.5 ,14.5 ,21.5 
2002/12/5,1:15:00,21.5 ,43.7 ,22.4 ,14.6 ,21.4 
2002/12/5,1:30:00,21.5 ,43.8 ,22.4 ,14.8 ,21.5 
2002/12/5,1:45:00,21.5 ,43.7 ,22.4 ,14.9 ,21.4 
2002/12/5,2:00:00,21.5 ,43.9 ,22.4 ,15.0 ,21.4 
2002/12/5,2:15:00,21.4 ,44.1 ,22.4 ,15.1 ,21.3 
2002/12/5,2:30:00,21.5 ,44.0 ,22.3 ,15.2 ,21.3 
2002/12/5,2:45:00,21.4 ,43.9 ,22.3 ,15.3 ,21.3 
2002/12/5,3:00:00,21.4 ,44.1 ,22.3 ,15.5 ,21.3 
2002/12/5,3:15:00,21.4 ,44.0 ,22.3 ,15.6 ,21.2 
2002/12/5,3:30:00,21.4 ,44.0 ,22.3 ,15.7 ,21.2 
2002/12/5,3:45:00,21.3 ,44.2 ,22.3 ,15.8 ,21.2 
2002/12/5,4:00:00,21.4 ,44.1 ,22.3 ,15.9 ,21.2 
2002/12/5,4:15:00,21.4 ,44.1 ,22.3 ,16.0 ,21.2 
2002/12/5,4:30:00,21.4 ,44.2 ,22.3 ,16.1 ,21.2 
2002/12/5,4:45:00,21.4 ,44.2 ,22.3 ,13.4 ,21.2 
2002/12/5,5:00:00,21.4 ,44.6 ,22.3 ,13.6 ,21.2 
2002/12/5,5:15:00,21.4 ,44.3 ,22.3 ,13.7 ,21.1 
2002/12/5,5:30:00,21.4 ,44.2 ,22.3 ,13.9 ,21.1 
2002/12/5,5:45:00,21.3 ,44.2 ,22.3 ,14.1 ,21.0 
2002/12/5,6:00:00,21.3 ,44.3 ,22.3 ,14.2 ,21.0 
2002/12/5,6:15:00,21.2 ,44.4 ,22.2 ,14.3 ,20.9 
2002/12/5,6:30:00,21.3 ,44.3 ,22.2 ,12.8 ,20.9 
2002/12/5,6:45:00,21.3 ,44.3 ,22.2 ,11.3 ,21.0 
2002/12/5,7:00:00,21.3 ,44.4 ,22.2 ,11.6 ,20.9 
2002/12/5,7:15:00,21.4 ,45.0 ,22.3 ,11.8 ,21.0 
2002/12/5,7:30:00,21.4 ,45.4 ,22.3 ,11.1 ,20.9 
2002/12/5,7:45:00,21.7 ,45.2 ,22.3 ,11.3 ,20.9 
2002/12/5,8:00:00,21.8 ,45.6 ,22.5 ,11.6 ,21.1 
2002/12/5,8:15:00,22.0 ,45.3 ,22.6 ,11.8 ,21.2 
2002/12/5,8:30:00,22.1 ,45.1 ,22.8 ,12.0 ,25.5 
2002/12/5,8:45:00,22.2 ,45.0 ,23.0 ,12.2 ,24.2 
2002/12/5,9:00:00,22.1 ,45.0 ,23.1 ,12.4 ,23.2 
2002/12/5,9:15:00,22.0 ,45.9 ,23.1 ,12.6 ,22.5 
2002/12/5,9:30:00,21.7 ,46.0 ,23.0 ,12.8 ,22.2 
2002/12/5,9:45:00,21.8 ,46.2 ,22.9 ,13.0 ,21.9 
2002/12/5,10:00:00,21.8 ,47.8 ,22.9 ,11.5 ,21.8 
2002/12/5,10:15:00,21.8 ,49.3 ,22.8 ,11.8 ,21.7 
2002/12/5,10:30:00,21.9 ,48.0 ,22.8 ,12.0 ,22.7 
2002/12/5,10:45:00,22.0 ,47.9 ,22.9 ,12.2 ,22.9 
2002/12/5,11:00:00,22.0 ,47.5 ,22.9 ,12.4 ,22.4 
2002/12/5,11:15:00,21.8 ,48.8 ,22.9 ,11.3 ,22.0 
2002/12/5,11:30:00,21.9 ,48.3 ,22.9 ,11.6 ,21.8 
2002/12/5,11:45:00,21.9 ,48.4 ,22.8 ,11.8 ,21.8 
2002/12/5,12:00:00,22.0 ,48.4 ,22.7 ,11.5 ,23.1 
2002/12/5,12:15:00,21.9 ,47.7 ,22.7 ,11.8 ,23.6 
2002/12/5,12:30:00,22.0 ,49.4 ,22.7 ,12.0 ,23.4 
2002/12/5,12:45:00,22.1 ,49.2 ,22.7 ,12.2 ,22.9 
2002/12/5,13:00:00,22.0 ,48.7 ,22.7 ,12.4 ,22.5 
2002/12/5,13:15:00,21.9 ,49.5 ,22.7 ,11.4 ,22.2 
2002/12/5,13:30:00,21.9 ,49.7 ,22.6 ,11.7 ,22.1 
2002/12/5,13:45:00,21.9 ,49.2 ,22.6 ,11.9 ,21.9 
2002/12/5,14:00:00,21.9 ,48.9 ,22.6 ,12.1 ,21.9 
2002/12/5,14:15:00,22.0 ,49.9 ,22.5 ,12.3 ,21.9 
2002/12/5,14:30:00,22.1 ,49.6 ,22.6 ,12.5 ,21.9 
2002/12/5,14:45:00,22.3 ,49.0 ,22.8 ,10.8 ,21.9 
2002/12/5,15:00:00,22.2 ,49.1 ,22.9 ,11.1 ,21.9 
2002/12/5,15:15:00,22.1 ,48.5 ,23.0 ,11.4 ,21.9 
2002/12/5,15:30:00,21.9 ,49.0 ,23.0 ,11.6 ,23.0 
2002/12/5,15:45:00,22.0 ,48.3 ,22.9 ,11.8 ,24.0 
2002/12/5,16:00:00,22.2 ,47.8 ,22.9 ,12.1 ,23.5 
2002/12/5,16:15:00,22.1 ,48.0 ,22.9 ,12.3 ,23.0 
2002/12/5,16:30:00,22.2 ,47.7 ,23.0 ,11.7 ,22.7 
2002/12/5,16:45:00,22.4 ,47.8 ,23.1 ,11.9 ,22.4 
2002/12/5,17:00:00,22.4 ,47.2 ,23.2 ,12.1 ,22.1 
2002/12/5,17:15:00,22.3 ,46.9 ,23.2 ,12.3 ,21.8 
2002/12/5,17:30:00,22.4 ,47.0 ,23.2 ,11.9 ,21.7 
2002/12/5,17:45:00,22.3 ,46.9 ,23.2 ,12.1 ,26.5 
2002/12/5,18:00:00,22.3 ,46.3 ,23.2 ,12.3 ,28.8 
2002/12/5,18:15:00,22.4 ,46.1 ,23.2 ,12.5 ,26.3 
2002/12/5,18:30:00,22.4 ,46.1 ,23.2 ,12.7 ,24.6 
2002/12/5,18:45:00,22.4 ,45.5 ,23.2 ,12.9 ,24.5 
2002/12/5,19:00:00,22.4 ,45.1 ,23.1 ,13.1 ,23.9 
2002/12/5,19:15:00,22.4 ,45.0 ,23.1 ,13.2 ,23.4 
2002/12/5,19:30:00,22.3 ,45.2 ,23.1 ,11.9 ,22.9 
2002/12/5,19:45:00,22.3 ,45.0 ,23.1 ,12.1 ,22.5 
2002/12/5,20:00:00,22.2 ,45.6 ,23.2 ,11.6 ,22.3 
2002/12/5,20:15:00,22.4 ,46.8 ,23.2 ,11.8 ,22.1 
2002/12/5,20:30:00,22.4 ,47.3 ,23.2 ,12.0 ,22.1 
2002/12/5,20:45:00,22.5 ,45.7 ,23.2 ,12.3 ,22.0 
2002/12/5,21:00:00,22.6 ,46.3 ,23.3 ,12.5 ,24.4 
2002/12/5,21:15:00,22.6 ,45.9 ,23.3 ,12.7 ,24.1 
2002/12/5,21:30:00,22.7 ,45.8 ,23.3 ,12.8 ,23.5 
2002/12/5,21:45:00,22.6 ,44.9 ,23.4 ,13.1 ,23.0 
2002/12/5,22:00:00,22.6 ,44.5 ,23.4 ,13.2 ,22.6 
2002/12/5,22:15:00,22.6 ,44.3 ,23.4 ,13.4 ,22.3 
2002/12/5,22:30:00,22.6 ,44.2 ,23.4 ,12.3 ,22.1 
2002/12/5,22:45:00,22.7 ,43.8 ,23.4 ,12.5 ,22.1 
2002/12/5,23:00:00,22.6 ,43.8 ,23.4 ,12.7 ,22.0 
2002/12/5,23:15:00,22.6 ,43.5 ,23.5 ,12.9 ,21.9 
2002/12/5,23:30:00,22.3 ,44.6 ,23.4 ,13.1 ,21.8 
2002/12/5,23:45:00,22.1 ,44.8 ,23.2 ,13.2 ,21.6 
2002/12/6,0:00:00,21.9 ,45.1 ,23.1 ,12.3 ,21.4 
2002/12/6,0:15:00,21.9 ,45.1 ,23.0 ,12.6 ,21.4 